Home > Weather > Aarhus > Past weeks

Flag for Denmark Weather for the Past 2 Weeks in Aarhus, Denmark

Now
52 °F

Cool.


Feels Like: 51 °F
Forecast: 41 / 54 °F
Wind: 3 mph from South

Location: Tirstrup

Current Time: May 2, 2016 at 11:47:20 PM

Latest Report: May 2, 2016 at 10:50 PM


Visibility: N/A

Pressure: 30.07 "Hg

Humidity: 62%

Dew Point: 39 °F

Location of AarhusLocation

Historic Weather in Aarhus — Graph

°F

Aarhus Temperature Yesterday

Maximum temperature yesterday: 54 °F (at 1:50 PM)
Minimum temperature yesterday: 30 °F (at 5:20 AM)
Average temperature yesterday: 44 °F

High & Low Weather Summary for the Past Weeks

 TemperatureHumidityPressure
High59 °F (May 2, 3:50 PM)93% (Apr 23, 6:20 AM)30.36 "Hg (Apr 23, 6:20 AM)
Low28 °F (Apr 25, 5:20 AM)29% (Apr 23, 5:20 PM)29.45 "Hg (Apr 26, 6:20 AM)
Average43 °F71%29.92 "Hg
* Reported Apr 17 10:20 PM — May 2 10:20 PM, Aarhus, Weather by CustomWeather, © 2016

Note: Actual official high and low records may vary slightly from our data, if they occured in-between our weather recording intervals... More about our weather records

Advertising

Aarhus Weather History for the Previous 24 Hours

Scroll right to see more
 ConditionsComfort  
Time TempWeatherWind HumidityBarometerVisibility
10:20 PM
Mon, May 2
52 °FPassing clouds.5 mph58%30.09 "HgN/A
9:50 PM52 °FPartly sunny.6 mph62%30.09 "HgN/A
9:20 PM54 °FScattered clouds.8 mph58%30.09 "HgN/A
8:50 PM54 °FPartly sunny.7 mph58%30.09 "HgN/A
8:20 PM54 °FPartly sunny.7 mph54%30.09 "HgN/A
7:50 PM55 °FPartly sunny.7 mph55%30.12 "HgN/A
7:20 PM55 °FOvercast.7 mph55%30.12 "HgN/A
6:50 PM57 °FPartly sunny.7 mph51%30.12 "HgN/A
6:20 PM57 °FPartly sunny.8 mph51%30.12 "HgN/A
5:50 PM59 °FOvercast.6 mph51%30.15 "HgN/A
5:20 PM59 °FPartly sunny.8 mph51%30.15 "HgN/A
4:50 PM59 °FOvercast.7 mph48%30.15 "HgN/A
4:20 PM57 °FPartly sunny.9 mph51%30.18 "HgN/A
3:50 PM59 °FPartly sunny.12 mph48%30.18 "HgN/A
3:20 PM57 °FPartly sunny.12 mph51%30.18 "HgN/A
2:50 PM57 °FPartly sunny.9 mph51%30.21 "HgN/A
2:20 PM57 °FRefreshingly cool.10 mph48%30.21 "HgN/A
1:50 PM57 °FRefreshingly cool.8 mph48%30.24 "HgN/A
1:20 PM57 °FRefreshingly cool.8 mph44%30.24 "HgN/A
12:50 PM55 °FRefreshingly cool.8 mph51%30.24 "HgN/A
12:20 PM55 °FRefreshingly cool.9 mph51%30.27 "HgN/A
11:50 AM55 °FRefreshingly cool.8 mph51%30.27 "HgN/A
11:20 AM54 °FCool.8 mph54%30.27 "HgN/A
10:50 AM54 °FCool.7 mph51%30.27 "HgN/A
10:20 AM52 °FCool.8 mph50%30.27 "HgN/A
9:50 AM52 °FCool.6 mph38%30.30 "HgN/A
9:20 AM50 °FCool.8 mph37%30.30 "HgN/A
8:20 AM48 °FPartly sunny.5 mph62%30.30 "HgN/A
7:20 AM45 °FScattered clouds.3 mph81%30.30 "HgN/A
6:50 AM37 °FChilly.5 mph93%30.30 "HgN/A
6:20 AM36 °FChilly.5 mph87%30.33 "HgN/A
5:20 AM34 °FChilly.5 mph87%30.33 "HgN/A
4:50 AM36 °FPassing clouds.1 mph87%30.33 "HgN/A
4:20 AM36 °FPassing clouds.1 mph93%30.33 "HgN/A
3:50 AM36 °FPassing clouds.1 mph93%30.33 "HgN/A
3:20 AM36 °FPassing clouds.1 mph87%30.33 "HgN/A
2:50 AM36 °FFog.1 mph87%30.33 "Hg2 mi
2:20 AM37 °FPassing clouds.1 mph81%30.33 "HgN/A
1:50 AM37 °FPassing clouds.No wind81%30.36 "HgN/A
12:50 AM37 °FPassing clouds.5 mph87%30.36 "HgN/A
12:20 AM39 °FPassing clouds.No wind81%30.36 "HgN/A
11:50 PM
Sun, May 1
39 °FPassing clouds.No wind81%30.36 "HgN/A
11:20 PM41 °FPassing clouds.1 mph76%30.36 "HgN/A
Weather by CustomWeather, © 2016

See weather overviewHow to use our weather pages